World > North America > United States > South Dakota > Box Elder

Box Elder, SD Hourly Weather Conditions

Feedback E-mail the Weather

Quick WX

Box Elder, SD Weather Maps

°F °C°F °C
Box Elder Weather Map
UTC Time: 2/5/2023, 18:13
Your Time:

Box Elder, SD Regional Weather

Expires:202302051900;;850258
ASUS43 KFSD 051810
RWRSD 

WEATHER ROUNDUP FOR SOUTH DAKOTA
NATIONAL WEATHER SERVICE SIOUX FALLS SD
1200 PM CST SUN FEB 05 2023

NOTE: "FAIR" INDICATES FEW OR NO CLOUDS BELOW 12,000 FEET WITH NO
SIGNIFICANT WEATHER AND/OR OBSTRUCTIONS TO VISIBILITY.



SDZ012>016-024>037-041>051-057-063-072>074-051900-
SOUTHWEST AND SOUTH CENTRAL SOUTH DAKOTA
  
CITY           SKY/WX    TMP DP  RH WIND       PRES   REMARKS
RAPID CTY ARPT SUNNY     45  27  49 S15       29.94F                  
PIERRE         SUNNY     39  28  64 CALM      30.01S                  
CUSTER         MOSUNNY   40  18  41 S10G18    29.93F                  
ELLSWORTH AFB  MOSUNNY   46  26  46 S15       29.91F                  
PHILIP         SUNNY     41  29  62 SW5       30.00F                  
PINE RIDGE     SUNNY     31  22  69 E3        29.99F                  
SPEARFISH      FAIR      48  19  32 NE6       29.89F                  
WINNER         SUNNY     39  26  59 SW5       30.04S                  
$$
 

SKY/WX - Weather  TMP - Temperature  DP - Dew Point  RH - Humidity
WIND - Wind Direction/Speed PRES - Barometric Pressure VSB - Visibility
WCI - Wind Chill Index E13G22 Wind - East Wind 13 mph/Gusts of 22 mph

Trending Headlines

Trending Entertainment Headlines

Box Elder Radar Loop

Use the map search tool if you want to place a location marker on the radar map...

Box Elder Quick Facts

National Two Day Weather Forecast


E-mail the Box Elder Weather Forecast

Voice your opinion or tell us about page issues...